TimeMST,TemperatureF,Dew PointF,Humidity,Sea Level PressureIn,VisibilityMPH,Wind Direction,Wind SpeedMPH,Gust SpeedMPH,PrecipitationIn,Events,Conditions,WindDirDegrees,DateUTC
12:15 AM,26.4,15.4,63,30.16,10.0,Calm,Calm,-,N/A,,Clear,0,2013-02-17 07:15:00
12:35 AM,26.6,15.6,63,30.15,10.0,ENE,4.6,-,N/A,,Clear,60,2013-02-17 07:35:00
12:55 AM,25.9,15.6,65,30.15,10.0,NE,6.9,-,N/A,,Clear,50,2013-02-17 07:55:00
1:15 AM,26.8,15.8,63,30.15,10.0,NNE,6.9,-,N/A,,Clear,30,2013-02-17 08:15:00
1:35 AM,27.0,16.0,63,30.14,10.0,ENE,8.1,-,N/A,,Clear,60,2013-02-17 08:35:00
1:55 AM,28.2,16.2,61,30.13,10.0,ENE,5.8,-,N/A,,Clear,70,2013-02-17 08:55:00
2:15 AM,26.6,16.3,65,30.12,10.0,Calm,Calm,-,N/A,,Clear,0,2013-02-17 09:15:00
2:35 AM,27.1,15.8,62,30.11,10.0,NE,5.8,-,N/A,,Clear,50,2013-02-17 09:35:00
2:55 AM,27.9,15.8,61,30.11,10.0,ENE,3.5,-,N/A,,Clear,60,2013-02-17 09:55:00
3:15 AM,28.2,15.8,60,30.09,10.0,East,3.5,-,N/A,,Clear,90,2013-02-17 10:15:00
3:35 AM,27.7,15.8,61,30.07,10.0,ENE,5.8,-,N/A,,Clear,60,2013-02-17 10:35:00
3:55 AM,27.3,15.8,62,30.07,10.0,Calm,Calm,-,N/A,,Clear,0,2013-02-17 10:55:00
4:15 AM,26.4,16.2,65,30.06,10.0,Calm,Calm,-,N/A,,Clear,0,2013-02-17 11:15:00
4:55 AM,24.4,16.0,70,30.05,10.0,ENE,3.5,-,N/A,,Clear,70,2013-02-17 11:55:00
5:15 AM,24.8,15.6,68,30.04,10.0,East,5.8,-,N/A,,Clear,80,2013-02-17 12:15:00
5:35 AM,25.3,16.2,68,30.04,10.0,East,4.6,-,N/A,,Clear,90,2013-02-17 12:35:00
5:55 AM,23.7,15.8,72,30.03,10.0,ENE,4.6,-,N/A,,Clear,60,2013-02-17 12:55:00
6:15 AM,24.4,15.8,70,30.02,10.0,East,4.6,-,N/A,,Clear,80,2013-02-17 13:15:00
6:35 AM,24.4,16.5,72,30.01,10.0,NNE,4.6,-,N/A,,Clear,20,2013-02-17 13:35:00
6:55 AM,25.5,15.6,66,30.00,10.0,NNE,4.6,-,N/A,,Clear,30,2013-02-17 13:55:00
7:15 AM,26.8,15.3,62,30.00,10.0,ENE,5.8,-,N/A,,Clear,70,2013-02-17 14:15:00
7:35 AM,26.2,15.8,65,29.99,10.0,NE,5.8,-,N/A,,Clear,50,2013-02-17 14:35:00
7:55 AM,29.1,15.3,56,29.99,10.0,ENE,8.1,-,N/A,,Clear,70,2013-02-17 14:55:00
8:15 AM,29.7,16.0,57,29.98,10.0,East,5.8,-,N/A,,Clear,80,2013-02-17 15:15:00
8:35 AM,31.6,16.0,52,29.98,10.0,ENE,4.6,-,N/A,,Clear,70,2013-02-17 15:35:00
8:55 AM,32.0,16.7,53,29.98,10.0,ENE,5.8,-,N/A,,Clear,70,2013-02-17 15:55:00
9:15 AM,33.6,16.5,50,29.96,10.0,East,5.8,-,N/A,,Clear,80,2013-02-17 16:15:00
9:35 AM,34.3,17.6,50,29.95,10.0,East,4.6,-,N/A,,Clear,80,2013-02-17 16:35:00
9:55 AM,34.9,17.6,49,29.94,10.0,SE,4.6,-,N/A,,Clear,130,2013-02-17 16:55:00
10:15 AM,35.6,18.5,50,29.93,10.0,Calm,Calm,-,N/A,,Clear,0,2013-02-17 17:15:00
10:35 AM,37.8,17.2,43,29.92,10.0,Calm,Calm,-,N/A,,Clear,0,2013-02-17 17:35:00
10:55 AM,39.6,16.3,39,29.90,10.0,Calm,Calm,-,N/A,,Clear,0,2013-02-17 17:55:00
11:15 AM,42.1,15.4,34,29.88,10.0,East,3.5,-,N/A,,Clear,80,2013-02-17 18:15:00
11:35 AM,43.7,16.0,33,29.86,10.0,ESE,4.6,-,N/A,,Clear,110,2013-02-17 18:35:00
11:55 AM,45.9,15.6,30,29.84,10.0,East,5.8,-,N/A,,Clear,100,2013-02-17 18:55:00
12:15 PM,48.2,15.8,27,29.82,10.0,East,4.6,-,N/A,,Clear,80,2013-02-17 19:15:00
12:35 PM,49.3,15.8,26,29.80,10.0,Calm,Calm,-,N/A,,Clear,0,2013-02-17 19:35:00
12:55 PM,50.9,14.9,24,29.78,10.0,Calm,Calm,-,N/A,,Clear,0,2013-02-17 19:55:00
1:15 PM,52.2,13.6,22,29.77,10.0,ESE,3.5,-,N/A,,Clear,120,2013-02-17 20:15:00
1:35 PM,53.6,13.3,20,29.75,10.0,SSE,3.5,-,N/A,,Clear,160,2013-02-17 20:35:00
1:55 PM,54.0,6.3,15,29.74,10.0,Calm,Calm,-,N/A,,Clear,0,2013-02-17 20:55:00
2:15 PM,55.6,5.5,13,29.73,10.0,Calm,Calm,-,N/A,,Clear,0,2013-02-17 21:15:00
2:35 PM,57.6,5.4,12,29.72,10.0,SW,6.9,-,N/A,,Clear,230,2013-02-17 21:35:00
2:55 PM,57.9,5.0,12,29.71,10.0,SW,10.4,16.1,N/A,,Clear,230,2013-02-17 21:55:00
3:15 PM,58.3,5.9,12,29.71,10.0,West,15.0,18.4,N/A,,Clear,260,2013-02-17 22:15:00
3:35 PM,57.2,8.1,14,29.71,10.0,West,13.8,-,N/A,,Clear,270,2013-02-17 22:35:00
3:55 PM,56.5,9.0,15,29.71,10.0,West,12.7,18.4,N/A,,Clear,270,2013-02-17 22:55:00
4:15 PM,55.6,10.9,17,29.71,10.0,West,11.5,18.4,N/A,,Clear,270,2013-02-17 23:15:00
4:35 PM,54.7,11.5,18,29.71,10.0,West,6.9,-,N/A,,Clear,270,2013-02-17 23:35:00
4:55 PM,54.1,12.0,19,29.71,10.0,West,8.1,-,N/A,,Clear,260,2013-02-17 23:55:00
5:15 PM,52.7,11.5,19,29.71,10.0,West,6.9,-,N/A,,Clear,260,2013-02-18 00:15:00
5:35 PM,50.4,13.1,23,29.71,10.0,SW,10.4,-,N/A,,Scattered Clouds,230,2013-02-18 00:35:00
5:55 PM,47.7,15.8,28,29.71,10.0,WSW,6.9,-,N/A,,Mostly Cloudy,250,2013-02-18 00:55:00
6:15 PM,46.4,16.7,31,29.72,10.0,SSW,8.1,-,N/A,,Overcast,210,2013-02-18 01:15:00
6:35 PM,45.5,16.7,32,29.72,10.0,SW,8.1,-,N/A,,Overcast,230,2013-02-18 01:35:00
6:55 PM,44.8,16.3,32,29.73,10.0,WSW,6.9,-,N/A,,Mostly Cloudy,250,2013-02-18 01:55:00
7:15 PM,44.2,14.7,30,29.74,10.0,South,4.6,-,N/A,,Mostly Cloudy,190,2013-02-18 02:15:00
7:35 PM,40.1,16.9,39,29.74,10.0,SSW,9.2,-,N/A,,Clear,210,2013-02-18 02:35:00
7:55 PM,41.7,17.4,38,29.74,10.0,SW,11.5,-,N/A,,Mostly Cloudy,220,2013-02-18 02:55:00
8:15 PM,44.8,15.6,31,29.75,10.0,West,12.7,16.1,N/A,,Mostly Cloudy,280,2013-02-18 03:15:00
8:35 PM,45.5,16.7,32,29.74,10.0,NW,19.6,25.3,N/A,,Mostly Cloudy,310,2013-02-18 03:35:00
8:55 PM,45.5,17.4,33,29.76,10.0,WNW,18.4,31.1,N/A,,Scattered Clouds,300,2013-02-18 03:55:00
9:15 PM,44.1,19.8,38,29.77,10.0,WNW,21.9,27.6,N/A,,Mostly Cloudy,300,2013-02-18 04:15:00
9:35 PM,42.4,21.4,43,29.79,10.0,WNW,19.6,28.8,N/A,,Scattered Clouds,300,2013-02-18 04:35:00
9:55 PM,41.2,22.8,48,29.79,10.0,West,20.7,26.5,N/A,,Clear,280,2013-02-18 04:55:00
10:15 PM,40.3,23.2,51,29.79,10.0,West,15.0,28.8,N/A,,Scattered Clouds,280,2013-02-18 05:15:00
10:35 PM,39.2,21.6,49,29.81,10.0,WNW,19.6,25.3,N/A,,Clear,290,2013-02-18 05:35:00
10:55 PM,38.3,22.6,53,29.81,10.0,West,19.6,25.3,N/A,,Clear,280,2013-02-18 05:55:00
11:15 PM,37.2,23.7,58,29.83,10.0,West,18.4,27.6,N/A,,Clear,280,2013-02-18 06:15:00
11:35 PM,37.0,20.1,50,29.83,10.0,West,18.4,27.6,N/A,,Clear,280,2013-02-18 06:35:00
11:55 PM,36.3,19.4,50,29.84,10.0,West,17.3,31.1,N/A,,Clear,270,2013-02-18 06:55:00